Regional Weather Roundup
Issued by NWS Huntsville, AL

Home | Current Version | Previous Version | Text Only | Print | Product List | Glossary On
Versions: 1 2 3 4 5 6 7 8 9 10 11 12 13 14 15 16 17 18 19 20 21 22 23 24 25 26 27
000
ASUS44 KHUN 191210
RWRHUN

WEATHER ROUNDUP FOR THE TENNESSEE VALLEY
NATIONAL WEATHER SERVICE HUNTSVILLE AL
600 AM CST SUN FEB 19 2017

ALZ001>004-191300-
NORTHWEST ALABAMA

CITY           SKY/WX    TMP DP  RH WIND       PRES   REMARKS
COURTLAND HCN    N/A     41 N/A N/A CALM        N/A
RUSSELLVILLE     N/A     46 N/A N/A MISG        N/A
SHOALS AIRPORT FOG       42  39  89 E3        30.05S VSB 1/4
6HR MIN TEMP:  41; 6HR MAX TEMP:  51;

SHOALS TVA RES   N/A     43 N/A N/A MISG        N/A
$$

ALZ005>007-016-191300-
NORTH CENTRAL ALABAMA

CITY           SKY/WX    TMP DP  RH WIND       PRES   REMARKS
CULLMAN AG STN   N/A     45 N/A N/A CALM        N/A
DECATUR AP     FOG       42  42 100 CALM      30.06R VSB 1/4
6HR MIN TEMP:  42; 6HR MAX TEMP:  49;

HUNTSVILLE AP  FOG       45  45 100 CALM      30.05R VSB 1/4
6HR MIN TEMP:  45; 6HR MAX TEMP:  52;

MERIDIANVILLE  FOG       45  43  93 CALM      30.06R VSB 1/4
REDSTONE ARSN  FOG       48  48 100 CALM      30.05R VSB 3/8
VINEMONT AP    FAIR      43  42  99 CALM      30.07R FOG
$$

ALZ008>010-191300-
NORTHEAST ALABAMA

CITY           SKY/WX    TMP DP  RH WIND       PRES   REMARKS
ALBERTVILLE      N/A     48  48 100 CALM      30.04R FOG
FORT PAYNE     CLOUDY    48  46  93 CALM      30.04R FOG
SCOTTSBORO AP  CLOUDY    48  48 100 CALM      30.06R FOG
SCOTTSBORO HCN   N/A     48 N/A N/A MISG        N/A
VALLEY HEAD      N/A     48 N/A N/A MISG        N/A
$$

TNZ076-096-097-191300-
SOUTHEASTERN MIDDLE TENNESSEE

CITY           SKY/WX    TMP DP  RH WIND       PRES   REMARKS
TULLAHOMA      CLOUDY    48  48 100 CALM      30.06R
WINCHESTER     CLOUDY    48  48 100 CALM      30.06R VSB 3/4
$$

...SURROUNDING SITES...

CITY           SKY/WX    TMP DP  RH WIND       PRES   REMARKS
ATLANTA        MOCLDY    53  52  96 N6        30.03R
ANNISTON       CLOUDY    54  53  97 CALM      30.05R
BIRMINGHAM     CLEAR     49  48  97 CALM      30.08R
CHATTANOOGA    DRIZZLE   51  50  96 CALM      30.05R FOG
CORINTH        FAIR      45  45 100 CALM      30.05R FOG
DALTON         CLOUDY    48  48 100 CALM      30.05R FOG
GADSDEN        CLOUDY    48  48 100 SE3       30.05S
GOLDEN TRNGL   FOG       43  37  81 E5        30.02R VSB 1
HALEYVILLE     FAIR      44  44 100 CALM      30.06S FOG
JACKSON TN     PTCLDY    43  43 100 S6        30.04R FOG
MEMPHIS        CLEAR     48  47  96 S6        30.04R
NASHVILLE      PTCLDY    46  44  93 S5        30.04S FOG
OXFORD MS      FAIR      41  41 100 CALM      30.08R
ROME           CLOUDY    49  47  93 CALM      30.05R FOG
SAVANNAH       CLEAR     43  43 100 CALM      30.04R FOG
TUPELO         CLEAR     46  44  93 CALM      30.06R
TUSCALOOSA     PTCLDY    48  46  93 CALM      30.07R
$$

...GULF COAST WEATHER...

CITY           SKY/WX    TMP DP  RH WIND       PRES   REMARKS
GULFPORT       FOG       54  54 100 CALM      30.02R VSB 1/4
PASCAGOULA     FOG       51  49  92 CALM      30.04R VSB 1/4
MOBILE         FOG       51  50  96 NE3       30.04R VSB 3/4
GULF SHORES    FOG       50  50 100 CALM      30.04R VSB 1/2
PENSACOLA      MOCLDY    54  53  97 NW6       30.03R FOG
DESTIN         FOG       61  61 100 N3        30.04R VSB 1/4
PANAMA CITY    FOG       55  55 100 CALM      30.04R VSB 1/2
APPALACHICOLA  FOG       53  53 100 CALM      30.02R VSB 1/2
$$





USA.gov is the U.S. government's official web portal to all federal, state and local government web resources and services.